User: anonymous   Login
Location: Ostrava
(49.8330°N, 18.2830°E)
Time: 00:17:19
(UTC+02:00)
Language:

Cosmos 2221 - Orbit

View from above orbital plane
View from above orbital plane
View from above satellite
View from above satellite

Ground track
Ground track

The orbit data is extracted from the following two-line orbital elements,

1 22236U 92080A   16275.17306848  .00000404  00000-0  41712-4 0  9999
2 22236  82.5067 303.8212 0017955 135.5274 224.7388 14.87459401288812
Epoch (UTC): 01 October 2016 04:09:13
Eccentricity: 0.0017955
inclination: 82.5067°
perigee height: 593 km
apogee height: 618 km
right ascension of ascending node: 303.8212°
argument of perigee: 135.5274°
revolutions per day: 14.87459401
mean anomaly at epoch: 224.7388°
orbit number at epoch: 28881

The dashed part of the orbit path shows where the satellite is in the earth's shadow,  

DLR